Flag for Germany Weather past 2 weeks in Taunusstein, Hesse, Germany

Now
57 °F

Mostly cloudy.


Feels Like: 56 °F
Forecast: 42 / 58 °F
Wind: 7 mph from West

Location: Wiesbaden Airport

Current Time: Sep 22, 2014 at 3:04:41 PM

Latest Report: Sep 22, 2014 at 1:58 PM


Visibility: N/A

Pressure: 30.06 "Hg

Humidity: 72%

Dew point: 48 °F

Location of TaunussteinLocation

Historic Weather in Taunusstein — Graph

°F

Taunusstein temperature yesterday

Maximum temperature yesterday: 65 °F (at 1:58 PM)
Minimum temperature yesterday: 55 °F (at 11:58 PM)
Average temperature yesterday: 61 °F

Past Weeks' High & Low Weather Summary

 TemperatureHumidityPressure
High77 °F (Sep 8, 2:58 PM)100% (Sep 19, 6:58 AM)30.20 "Hg (Sep 19, 6:58 AM)
Low52 °F (Sep 11, 2:58 AM)38% (Sep 9, 4:58 PM)29.86 "Hg (Sep 18, 2:58 AM)
Average63 °F79%30.01 "Hg
* Reported Sep 7 1:58 PM — Sep 22 1:58 PM, Taunusstein, Weather by CustomWeather, © 2014

Note: Actual official high and low records may vary slightly from our data, if they occured in-between our weather recording intervals... More about our weather records

Advertising

Taunusstein weather history for previous 24 hours

 ConditionsComfort  
Time TempWeatherWind HumidityBarometerVisibility
1:58 PM
Sep 22
57 °FMostly cloudy.7 mph72%30.06 "HgN/A
12:58 PM56 °FPartly sunny.12 mph76%30.06 "HgN/A
11:58 AM57 °FMostly cloudy.8 mph72%30.09 "HgN/A
10:58 AM56 °FCloudy.9 mph74%30.10 "HgN/A
9:58 AM55 °FMore clouds than sun.9 mph79%30.10 "HgN/A
8:58 AM54 °FMostly cloudy.8 mph84%30.11 "HgN/A
7:58 AM53 °FMostly cloudy.5 mph83%30.10 "HgN/A
6:59 AM52 °FMostly cloudy.7 mph88%30.10 "HgN/A
5:58 AM54 °FPassing clouds.7 mph88%30.10 "HgN/A
4:58 AM54 °FMostly cloudy.6 mph88%30.10 "HgN/A
3:58 AM54 °FOvercast.10 mph88%30.10 "HgN/A
2:58 AM52 °FClear.9 mph94%30.10 "HgN/A
1:58 AM53 °FClear.8 mph87%30.11 "HgN/A
12:58 AM53 °FClear.8 mph87%30.10 "HgN/A
11:58 PM
Sep 21
55 °FClear.8 mph82%30.09 "HgN/A
10:58 PM56 °FClear.8 mph82%30.08 "HgN/A
9:58 PM57 °FClear.7 mph81%30.07 "HgN/A
8:58 PM58 °FClear.9 mph85%30.05 "HgN/A
7:58 PM60 °FSunny.10 mph78%30.02 "HgN/A
6:58 PM61 °FMostly cloudy.7 mph83%30.01 "HgN/A
5:58 PM62 °FMore clouds than sun.5 mph87%30.00 "HgN/A
4:58 PM63 °FBroken clouds.3 mph83%29.98 "HgN/A
4:04 PM63 °FOvercast.6 mph83%29.98 "HgN/A
3:58 PM62 °FLight rain. Overcast.8 mph87%29.98 "HgN/A
Weather by CustomWeather, © 2014

See weather overviewHow to use our weather pages